Washington, NC

3:56 PM EDT on August 21, 2017 (GMT -0400)
Warren

Weather History for KOCW - November, 2012

Change the Weather History Date:

Wednesday, November 28, 2012

  Actual Average (KPGV) Record (KPGV)
Temperature  
Mean Temperature 41 °F -  
Max Temperature 51 °F 67 °F 82 °F (2001)
Min Temperature 32 °F 41 °F 6 °F (1997)
Degree Days  
Heating Degree Days 24    
Moisture  
Dew Point 32 °F    
Average Humidity 71    
Maximum Humidity 83    
Minimum Humidity 42    
Precipitation  
Precipitation 0.00 in - - ()
Sea Level Pressure  
Sea Level Pressure 30.30 in    
Wind  
Wind Speed 7 mph (NNW)    
Max Wind Speed 14 mph    
Max Gust Speed 24 mph    
Visibility 9 miles    
Events      
Averages and records for this station are not official NWS values.
T = Trace of Precipitation, MM = Missing Value Source: NWS Daily Summary

Daily Weather History Graph

Daily Weather History Graph

Search for Another Location

Airport or City:

Trip Planner

Search our weather history database for the weather conditions in past years. The results will help you decide how hot, cold, wet, or windy it might be!

Date:

Astronomy

Nov. 28, 2012 Rise Set
Actual Time 6:56 AM EST 4:55 PM EST
Civil Twilight 6:29 AM EST 5:23 PM EST
Nautical Twilight 5:57 AM EST 5:54 PM EST
Astronomical Twilight 5:26 AM EST 6:25 PM EST
Moon 5:09 PM EST (11/28) 6:52 AM EST (11/28)
Length of Visible Light 10h 54m
Length of Day
9h 58m
Full, 100% of the Moon is Illuminated
Nov 28
Full
Dec 6
Last Quarter
Dec 13
New
Dec 20
First Quarter
Dec 28
Full

Hourly Weather History & Observations

Time (EST) Temp. Windchill Dew Point Humidity Pressure Visibility Wind Dir Wind Speed Gust Speed Precip Events Conditions
12:35 AM 43.9 °F 38.8 °F 38.3 °F 81% 30.21 in 7.0 mi NNW 9.2 mph - N/A   Overcast
12:55 AM 43.2 °F 37.0 °F 37.6 °F 81% 30.21 in 5.0 mi North 11.5 mph - N/A   Haze
1:15 AM 42.8 °F 38.0 °F 37.0 °F 80% 30.22 in 5.0 mi NNW 8.1 mph - N/A   Haze
1:35 AM 42.8 °F 36.2 °F 37.0 °F 80% 30.21 in 10.0 mi North 12.7 mph - N/A   Overcast
1:55 AM 42.8 °F 37.5 °F 37.0 °F 80% 30.21 in 7.0 mi North 9.2 mph - N/A   Overcast
2:15 AM 42.8 °F 37.5 °F 37.0 °F 80% 30.21 in 5.0 mi North 9.2 mph - N/A   Haze
2:35 AM 42.8 °F 38.6 °F 37.0 °F 80% 30.22 in 7.0 mi North 6.9 mph - N/A   Overcast
2:55 AM 42.8 °F 37.5 °F 37.0 °F 80% 30.22 in 7.0 mi NNW 9.2 mph 16.1 mph N/A   Overcast
3:15 AM 42.8 °F 37.5 °F 37.0 °F 80% 30.22 in 7.0 mi North 9.2 mph - N/A   Overcast
3:35 AM 42.8 °F 37.5 °F 37.0 °F 80% 30.23 in 10.0 mi North 9.2 mph - N/A   Overcast
3:55 AM 42.4 °F 37.0 °F 36.9 °F 81% 30.23 in 10.0 mi North 9.2 mph - N/A   Overcast
4:15 AM 41.2 °F 35.5 °F 35.8 °F 81% 30.23 in 10.0 mi North 9.2 mph - N/A   Overcast
4:35 AM 40.1 °F 34.7 °F 34.7 °F 81% 30.23 in 10.0 mi NNW 8.1 mph - N/A   Scattered Clouds
4:55 AM 39.6 °F 35.4 °F 34.2 °F 81% 30.24 in 10.0 mi North 5.8 mph - N/A   Clear
5:15 AM 37.6 °F 33.1 °F 32.2 °F 81% 30.25 in 7.0 mi North 5.8 mph - N/A   Clear
5:35 AM 37.6 °F 34.0 °F 32.2 °F 81% 30.26 in 7.0 mi NNW 4.6 mph - N/A   Clear
5:55 AM 37.6 °F 34.0 °F 32.2 °F 81% 30.26 in 7.0 mi NNW 4.6 mph - N/A   Clear
6:15 AM 37.6 °F 34.0 °F 32.2 °F 81% 30.26 in 5.0 mi North 4.6 mph - N/A   Haze
6:35 AM 36.9 °F - 31.8 °F 82% 30.27 in 4.0 mi Calm Calm - N/A   Haze
7:15 AM 35.6 °F - 30.7 °F 82% 30.29 in 3.0 mi Calm Calm - N/A   Haze
7:35 AM 36.1 °F 33.5 °F 31.3 °F 83% 30.29 in 3.0 mi NNW 3.5 mph - N/A   Haze
7:55 AM 37.6 °F 35.1 °F 32.2 °F 81% 30.30 in 4.0 mi NW 3.5 mph - N/A   Haze
8:15 AM 37.6 °F 34.0 °F 32.2 °F 81% 30.31 in 5.0 mi NNW 4.6 mph - N/A   Haze
8:35 AM 37.6 °F 32.3 °F 32.2 °F 81% 30.31 in 7.0 mi North 6.9 mph - N/A   Clear
8:55 AM 40.1 °F 34.7 °F 34.7 °F 81% 30.32 in 10.0 mi North 8.1 mph - N/A   Clear
9:15 AM 40.8 °F 35.6 °F 34.0 °F 77% 30.32 in 10.0 mi North 8.1 mph - N/A   Clear
9:35 AM 42.8 °F 37.5 °F 34.2 °F 72% 30.32 in 10.0 mi North 9.2 mph - N/A   Clear
9:55 AM 42.8 °F 38.0 °F 32.7 °F 68% 30.33 in 10.0 mi NNE 8.1 mph 16.1 mph N/A   Clear
10:15 AM 43.9 °F 38.3 °F 32.5 °F 64% 30.33 in 10.0 mi North 10.4 mph - N/A   Clear
10:35 AM 45.1 °F 40.8 °F 32.5 °F 61% 30.32 in 10.0 mi North 8.1 mph - N/A   Clear
10:55 AM 45.9 °F 41.7 °F 32.0 °F 58% 30.32 in 10.0 mi North 8.1 mph - N/A   Clear
11:15 AM 46.4 °F 41.9 °F 31.5 °F 56% 30.32 in 10.0 mi NNE 9.2 mph - N/A   Clear
11:35 AM 48.0 °F - 31.8 °F 54% 30.31 in 10.0 mi North 10.4 mph - N/A   Clear
11:55 AM 49.3 °F - 30.7 °F 49% 30.31 in 10.0 mi North 10.4 mph 16.1 mph N/A   Clear
12:15 PM 49.6 °F - 30.0 °F 47% 30.31 in 10.0 mi North 11.5 mph 24.2 mph N/A   Clear
12:35 PM 50.2 °F - 29.1 °F 44% 30.31 in 10.0 mi NW 13.8 mph 21.9 mph N/A   Clear
12:55 PM 50.2 °F - 28.0 °F 42% 30.30 in 10.0 mi NW 11.5 mph 19.6 mph N/A   Clear
1:15 PM 50.2 °F - 28.6 °F 43% 30.30 in 10.0 mi NW 9.2 mph 17.3 mph N/A   Clear
1:35 PM 50.2 °F - 27.9 °F 42% 30.29 in 10.0 mi NW 8.1 mph 11.5 mph N/A   Clear
1:55 PM 50.2 °F - 29.3 °F 45% 30.29 in 10.0 mi NW 5.8 mph - N/A   Clear
2:15 PM 50.2 °F - 28.2 °F 43% 30.29 in 10.0 mi NNW 6.9 mph 16.1 mph N/A   Clear
2:35 PM 50.2 °F - 27.7 °F 42% 30.28 in 10.0 mi NW 8.1 mph - N/A   Clear
2:55 PM 50.2 °F - 28.4 °F 43% 30.28 in 10.0 mi NNW 6.9 mph - N/A   Clear
3:15 PM 50.2 °F - 27.9 °F 42% 30.28 in 10.0 mi NW 5.8 mph - N/A   Clear
3:35 PM 50.2 °F - 28.4 °F 43% 30.29 in 10.0 mi NNW 5.8 mph - N/A   Clear
3:55 PM 50.2 °F - 29.3 °F 45% 30.29 in 10.0 mi NW 4.6 mph - N/A   Clear
4:15 PM 47.8 °F - 28.4 °F 47% 30.30 in 10.0 mi NNW 5.8 mph - N/A   Clear
4:35 PM 46.6 °F - 28.9 °F 50% 30.31 in 10.0 mi Calm Calm - N/A   Clear
4:55 PM 45.1 °F - 31.6 °F 59% 30.31 in 10.0 mi Calm Calm - N/A   Clear
5:15 PM 42.8 °F - 32.4 °F 67% 30.31 in 10.0 mi Calm Calm - N/A   Clear
5:35 PM 42.3 °F - 34.0 °F 72% 30.32 in 10.0 mi Calm Calm - N/A   Clear
5:55 PM 40.5 °F - 32.9 °F 74% 30.33 in 10.0 mi Calm Calm - N/A   Clear
6:15 PM 40.1 °F - 33.3 °F 77% 30.34 in 10.0 mi Calm Calm - N/A   Clear
6:35 PM 39.2 °F - 32.7 °F 78% 30.34 in 10.0 mi Calm Calm - N/A   Clear
6:55 PM 39.9 °F - 33.6 °F 78% 30.36 in 10.0 mi Calm Calm - N/A   Clear
7:15 PM 37.6 °F - 32.2 °F 81% 30.36 in 10.0 mi Calm Calm - N/A   Clear
7:35 PM 37.6 °F - 32.4 °F 81% 30.37 in 10.0 mi Calm Calm - N/A   Clear
7:55 PM 37.6 °F - 32.4 °F 81% 30.37 in 10.0 mi Calm Calm - N/A   Clear
8:15 PM 37.6 °F - 32.4 °F 81% 30.38 in 10.0 mi Calm Calm - N/A   Clear
8:35 PM 35.2 °F - 30.6 °F 83% 30.38 in 10.0 mi Calm Calm - N/A   Clear
8:55 PM 32.5 °F - 27.9 °F 83% 30.38 in 10.0 mi Calm Calm - N/A   Clear
9:15 PM 32.5 °F - 27.9 °F 83% 30.39 in 10.0 mi Calm Calm - N/A   Clear
9:35 PM 32.5 °F - 27.9 °F 83% 30.39 in 10.0 mi Calm Calm - N/A   Clear
9:55 PM 32.5 °F - 27.9 °F 83% 30.39 in 10.0 mi Calm Calm - N/A   Clear
10:15 PM 32.5 °F - 27.9 °F 83% 30.39 in 10.0 mi Calm Calm - N/A   Clear
10:35 PM 32.5 °F - 27.9 °F 83% 30.39 in 10.0 mi Calm Calm - N/A   Clear
10:55 PM 32.5 °F - 27.9 °F 83% 30.38 in 10.0 mi Calm Calm - N/A   Clear
11:15 PM 32.5 °F - 27.9 °F 83% 30.38 in 10.0 mi Calm Calm - N/A   Clear
11:35 PM 32.5 °F - 27.9 °F 83% 30.39 in 7.0 mi Calm Calm - N/A   Clear
11:55 PM 32.5 °F - 27.9 °F 83% 30.39 in 7.0 mi Calm Calm - N/A   Clear